Location: Fouquenies
(49.4624°N, 2.0492°E)
Time: 08:56:29
(UTC+00:00)

Cosmos 1825 - Pass Details

Date: 03 February 2023
Orbit: 481 x 488 km, 82.5° (Epoch: 21 March)

Event Time Altitude Azimuth Distance (km) Brightness Sun altitude
Rises 18:14:33 0° 182° (S) 2,570 5.9 -13.8°
Reaches altitude 10° 18:16:39 10° 179° (S) 1,694 4.9 -14.2°
Maximum altitude 18:20:20 67° 97° (E) 544 2.0 -14.8°
Drops below altitude 10° 18:24:04 10° 15° (NNE) 1,711 4.6 -15.4°
Enters shadow 18:26:01 - 13° (NNE) 2,522 5.5 -15.7°
